Content
SEND FEEDBACK

Daily
Averages
Monthly
Summary
Canada

VANCOUVER, BRITISH COLUMBIA


Home > North America > Canada > British Columbia
Elevation: 7 feet     Latitude: 49 11N     Longitude: 123 10W

WEATHER
 
SELECT A DAY
Number of Records: 249,809;   Date Range: 5/15/97 - 9/15/14
 
SHARE

PRINT THIS DATA

[ ← Previous Day ]
WEATHER ALMANAC - FEBRUARY 9, 2013
[ Next Day → ]
[ °C ]   °F
Weather ElementAverageHighLow
Temperature40 °F42.8 °F (3:55 pm)39.2 °F (12:35 am)
Dewpoint38.6 °F39.2 °F (6:55 am)37.4 °F (12:35 am)
Humidity94.6 %100 % (6:55 am)87 % (3:55 pm)
Barometer30.27 in30.33 in (10:15 pm)30.24 in (7:35 am)

Weather ElementAverage
Weather ElementTotal
Precipitation---
Heating Degree Days24 (Base 65)
Averaged from 68 records on February 9, 2013
WEATHER CONDITIONS BREAKOUT
WIND DIRECTION BREAKOUT
WEATHER BY HOUR - FEBRUARY 9, 2013
[ °C ]   °F
Local TimeTemperatureDewpointHumidityBarometerVisibilityWind DirectionWind SpeedGust SpeedPrecipitationEventsConditions
12:35 AM39.2 °F37.4 °F93 %30.26 in10.0 miCalmOvercast
12:55 AM39.2 °F37.4 °F93 %30.26 in10.0 miCalmOvercast
1:15 AM39.2 °F37.4 °F93 %30.26 in10.0 miCalmOvercast
1:35 AM39.2 °F37.4 °F93 %30.26 in10.0 miCalmOvercast
1:55 AM39.2 °F37.4 °F93 %30.26 in10.0 miCalmOvercast
2:15 AM39.2 °F37.4 °F93 %30.26 in10.0 miCalmOvercast
2:35 AM39.2 °F37.4 °F93 %30.26 in10.0 miCalmOvercast
2:55 AM39.2 °F37.4 °F93 %30.25 in10.0 miCalmOvercast
3:15 AM39.2 °F37.4 °F93 %30.25 in10.0 miCalmOvercast
3:35 AM39.2 °F37.4 °F93 %30.25 in10.0 miCalmOvercast
3:55 AM39.2 °F37.4 °F93 %30.25 in10.0 miCalmOvercast
4:15 AM39.2 °F37.4 °F93 %30.25 in10.0 miCalmOvercast
4:35 AM39.2 °F37.4 °F93 %30.25 in10.0 miCalmOvercast
4:55 AM39.2 °F37.4 °F93 %30.25 in10.0 miCalmOvercast
5:15 AM39.2 °F37.4 °F93 %30.26 in10.0 miCalmOvercast
5:35 AM39.2 °F37.4 °F93 %30.26 in10.0 miCalmOvercast
5:55 AM39.2 °F37.4 °F93 %30.25 in10.0 miCalmOvercast
6:15 AM39.2 °F37.4 °F93 %30.25 in10.0 miCalmOvercast
6:35 AM39.2 °F37.4 °F93 %30.25 in10.0 miCalmOvercast
6:55 AM39.2 °F39.2 °F100 %30.25 in10.0 miCalmOvercast
7:15 AM39.2 °F39.2 °F100 %30.25 in10.0 miCalmMostly Cloudy
7:35 AM39.2 °F37.4 °F93 %30.24 in10.0 miCalmOvercast
7:55 AM39.2 °F37.4 °F93 %30.25 in10.0 miCalmOvercast
8:15 AM39.2 °F39.2 °F100 %30.25 in10.0 miCalmOvercast
8:35 AM41.0 °F39.2 °F93 %30.26 in8.0 miCalmOvercast
8:55 AM41.0 °F39.2 °F93 %30.25 in4.0 miCalmOvercast
9:15 AM41.0 °F39.2 °F93 %30.26 in10.0 miCalmOvercast
9:35 AM41.0 °F39.2 °F93 %30.26 in9.0 miCalmOvercast
9:55 AM41.0 °F39.2 °F93 %30.27 in4.0 miCalmOvercast
10:15 AM41.0 °F39.2 °F93 %30.27 in2.5 miCalmOvercast
10:35 AM41.0 °F39.2 °F93 %30.27 in9.0 miCalmOvercast
10:55 AM41.0 °F39.2 °F93 %30.27 in7.0 miCalmOvercast
11:15 AM41.0 °F39.2 °F93 %30.27 in8.0 miCalmOvercast
11:35 AM41.0 °F39.2 °F93 %30.27 in7.0 miCalmOvercast
11:55 AM41.0 °F39.2 °F93 %30.27 in8.0 miCalmOvercast
12:15 PM41.0 °F39.2 °F93 %30.27 in5.0 miCalmOvercast
12:35 PM41.0 °F39.2 °F93 %30.26 in5.0 miCalmRainLight Rain
12:55 PM41.0 °F39.2 °F93 %30.27 in7.0 miCalmRainLight Rain
1:15 PM41.0 °F39.2 °F93 %30.27 in5.0 miCalmScattered Clouds
1:35 PM41.0 °F39.2 °F93 %30.26 in10.0 miCalmMostly Cloudy
1:55 PM41.0 °F39.2 °F93 %30.26 in9.0 miCalmOvercast
2:15 PM41.0 °F39.2 °F93 %30.26 in7.0 miNorthRainLight Rain
2:35 PM41.0 °F39.2 °F93 %30.27 in6.0 miCalmRainLight Rain
3:15 PM41.0 °F39.2 °F93 %30.27 in10.0 miCalmOvercast
3:35 PM41.0 °F39.2 °F93 %30.27 in10.0 miCalmOvercast
3:55 PM42.8 °F39.2 °F87 %30.28 in10.0 miCalmOvercast
4:15 PM42.8 °F39.2 °F87 %30.28 in10.0 miCalmOvercast
4:35 PM41.0 °F39.2 °F93 %30.29 in10.0 miCalmOvercast
5:15 PM41.0 °F39.2 °F93 %30.29 in10.0 miCalmOvercast
5:35 PM41.0 °F39.2 °F93 %30.29 in10.0 miCalmOvercast
5:55 PM41.0 °F39.2 °F93 %30.29 in10.0 miCalmOvercast
6:15 PM41.0 °F39.2 °F93 %30.29 in10.0 miCalmOvercast
6:35 PM39.2 °F39.2 °F100 %30.29 in10.0 miCalmOvercast
6:55 PM39.2 °F39.2 °F100 %30.29 in9.0 miCalmOvercast
7:15 PM39.2 °F39.2 °F100 %30.29 in7.0 miCalmOvercast
7:35 PM39.2 °F39.2 °F100 %30.29 in7.0 miCalmOvercast
7:55 PM39.2 °F39.2 °F100 %30.29 in9.0 miCalmOvercast
8:15 PM39.2 °F39.2 °F100 %30.30 in8.0 miCalmOvercast
8:35 PM39.2 °F39.2 °F100 %30.30 in10.0 miCalmOvercast
8:55 PM39.2 °F39.2 °F100 %30.31 in9.0 miCalmOvercast
9:15 PM39.2 °F39.2 °F100 %30.32 in9.0 miCalmOvercast
9:35 PM39.2 °F39.2 °F100 %30.32 in10.0 miCalmOvercast
10:15 PM39.2 °F39.2 °F100 %30.33 in7.0 miCalmOvercast
10:35 PM39.2 °F39.2 °F100 %30.33 in7.0 miCalmOvercast
10:55 PM39.2 °F39.2 °F100 %30.33 in7.0 miCalmOvercast
11:15 PM39.2 °F39.2 °F100 %30.33 in7.0 miCalmOvercast
11:35 PM41.0 °F39.2 °F93 %30.33 in7.0 miCalmOvercast
11:55 PM41.0 °F39.2 °F93 %30.33 in8.0 miCalmOvercast
Hourly data recorded from CZBB, located miles away from Vancouver, British Columbia







STORIES FROM OUR PARTNERS